TimeCDT,TemperatureF,Dew PointF,Humidity,Sea Level PressureIn,VisibilityMPH,Wind Direction,Wind SpeedMPH,Gust SpeedMPH,PrecipitationIn,Events,Conditions,WindDirDegrees,DateUTC
12:55 AM,66.0,62.1,87,29.86,10.0,South,6.9,-,N/A,,Scattered Clouds,170,2012-10-22 05:55:00
1:55 AM,66.9,63.0,87,29.85,10.0,SSE,6.9,-,N/A,,Mostly Cloudy,160,2012-10-22 06:55:00
2:55 AM,66.0,63.0,90,29.83,9.0,SE,8.1,-,N/A,,Mostly Cloudy,140,2012-10-22 07:55:00
3:55 AM,66.0,63.0,90,29.83,9.0,SSE,8.1,-,N/A,,Mostly Cloudy,160,2012-10-22 08:55:00
4:24 AM,66.2,62.6,88,29.85,7.0,South,5.8,-,0.00,Rain-Thunderstorm,Light Rain,170,2012-10-22 09:24:00
4:42 AM,66.2,64.4,94,29.83,2.5,South,3.5,-,0.01,Rain-Thunderstorm,Rain,170,2012-10-22 09:42:00
4:55 AM,66.0,64.0,93,29.85,5.0,SSW,6.9,-,0.07,Rain-Thunderstorm,Light Rain,200,2012-10-22 09:55:00
5:36 AM,66.2,64.4,94,29.83,4.0,South,4.6,-,0.06,Rain-Thunderstorm,Light Rain,170,2012-10-22 10:36:00
5:39 AM,64.4,64.4,100,29.84,5.0,South,4.6,-,0.06,Rain-Thunderstorm,Light Rain,180,2012-10-22 10:39:00
5:46 AM,64.4,64.4,100,29.85,5.0,SSW,8.1,-,0.06,Rain-Thunderstorm,Light Rain,200,2012-10-22 10:46:00
5:55 AM,64.9,64.0,97,29.84,4.0,SSW,6.9,-,0.06,,Overcast,210,2012-10-22 10:55:00
6:26 AM,64.4,64.4,100,29.85,7.0,SSW,5.8,-,N/A,Rain,Light Rain,210,2012-10-22 11:26:00
6:55 AM,64.0,63.0,96,29.85,9.0,SSW,5.8,-,0.02,Rain,Light Rain,210,2012-10-22 11:55:00
7:29 AM,64.4,62.6,94,29.85,10.0,South,5.8,-,0.00,,Overcast,190,2012-10-22 12:29:00
7:55 AM,64.9,63.0,93,29.86,10.0,SSW,3.5,-,0.00,,Overcast,210,2012-10-22 12:55:00
8:16 AM,64.4,62.6,94,29.86,8.0,SSE,5.8,-,N/A,,Mostly Cloudy,160,2012-10-22 13:16:00
8:55 AM,66.0,64.0,93,29.86,10.0,South,6.9,-,N/A,,Mostly Cloudy,170,2012-10-22 13:55:00
9:55 AM,69.1,66.0,90,29.87,7.0,South,9.2,-,N/A,,Overcast,180,2012-10-22 14:55:00
10:55 AM,73.0,66.9,81,29.85,10.0,SSW,12.7,20.7,N/A,,Partly Cloudy,200,2012-10-22 15:55:00
11:55 AM,75.9,68.0,76,29.83,10.0,South,16.1,-,N/A,,Partly Cloudy,190,2012-10-22 16:55:00
12:55 PM,75.9,66.9,74,29.82,10.0,SW,13.8,24.2,N/A,,Partly Cloudy,220,2012-10-22 17:55:00
1:55 PM,78.1,66.9,68,29.81,10.0,SSW,15.0,-,N/A,,Partly Cloudy,210,2012-10-22 18:55:00
2:55 PM,77.0,66.0,69,29.81,10.0,SSW,13.8,-,N/A,,Mostly Cloudy,200,2012-10-22 19:55:00
3:55 PM,75.9,66.0,71,29.83,10.0,South,10.4,-,N/A,,Overcast,190,2012-10-22 20:55:00
5:55 PM,73.9,66.0,76,29.84,10.0,South,8.1,-,N/A,,Mostly Cloudy,180,2012-10-22 22:55:00
6:55 PM,73.9,64.0,71,29.84,10.0,SSW,10.4,-,N/A,,Scattered Clouds,200,2012-10-22 23:55:00
7:55 PM,72.0,64.0,76,29.84,10.0,SSW,6.9,-,N/A,,Clear,200,2012-10-23 00:55:00
8:55 PM,71.1,64.9,81,29.85,10.0,South,6.9,-,N/A,,Partly Cloudy,180,2012-10-23 01:55:00
9:55 PM,71.1,64.9,81,29.86,10.0,South,9.2,-,N/A,,Clear,180,2012-10-23 02:55:00
10:55 PM,71.1,64.9,81,29.86,10.0,South,11.5,-,N/A,,Clear,180,2012-10-23 03:55:00
11:55 PM,70.0,64.9,84,29.85,10.0,South,8.1,-,N/A,,Clear,190,2012-10-23 04:55:00